sat.trackr.live / text

‹ back to catalog

STARLINK-36472

NORAD 67346 · 2026-003N

PAYLOAD ACTIVE UNKNOWN

§ Identity

Operator
Country
US
Launch date
2026-01-09
Launch site
AFETR
Launch vehicle
Mass (kg)
RCS (m²)

Purposes: comms

External: N2YO · Heavens-Above · Gunter

§ Orbital elements

Epoch: 2026-05-25T01:52:50.037024Z

Period
94.27 min
Inclination
43.0032°
Eccentricity
0.0002180
Mean motion
15.27570257 rev/d
Perigee alt
481.6 km
Apogee alt
484.6 km
Semi-major
6,861.2 km
B*
1.1371e-3
RAAN
155.9226°
Arg perigee
258.2745°
Mean anomaly
101.7862°
Rev number
2,049

§ Raw data

STARLINK-364721 67346U 26003N   26145.07835691  .00031152  00000+0  11371-2 0  99902 67346  43.0032 155.9226 0002180 258.2745 101.7862 15.27570257 20495

JSON: /api/v1/satellites/67346 · /tle

For live sub-satellite position, see the globe view (requires WebGL).

§ Visibility from observer

Set your observer location to see the next 7 days of passes ≥ 10°. The values pass through the URL so the page stays shareable.

No JS? Fill the form by hand. The geolocation button needs JavaScript.